QPF
0.05 0.04 0.03 0.03 0.04 0.05 0.07 0.08 0.09 0.10 0.08 0.07 0.05 0.04 0.04 0.03 0.03 0.03 0.02 0.02 0.03 0.03 0.03 0.02 0.02 0.02 0.02 0.03 0.03 0.03 0.03 0.03 0.03 0.03 0.03 0.03 0.02 0.03
0.04 0.05 0.04 0.03 0.03 0.03 0.04 0.05 0.05 0.06 0.06 0.04 0.03 0.02 0.02 0.02 0.03 0.03 0.02 0.03 0.03 0.03 0.03 0.03 0.03 0.03 0.02 0.03 0.03 0.02 0.02 0.02 0.02 0.02 0.02 0.02 0.02 0.03
0.03 0.04 0.05 0.04 0.03 0.04 0.04 0.04 0.05 0.05 0.05 0.03 0.02 0.02 0.02 0.02 0.02 0.02 0.02 0.03 0.03 0.03 0.02 0.02 0.03 0.02 0.02 0.02 0.03 0.03 0.02 0.02 0.01 0.01 0.02 0.02 0.03 0.04
0.02 0.02 0.03 0.04 0.04 0.05 0.05 0.05 0.06 0.06 0.07 0.05 0.03 0.02 0.02 0.02 0.02 0.02 0.02 0.02 0.03 0.03 0.02 0.02 0.02 0.02 0.03 0.03 0.02 0.02 0.02 0.02 0.02 0.02 0.02 0.02 0.03 0.04
0.01 0.02 0.02 0.02 0.02 0.03 0.04 0.05 0.05 0.05 0.05 0.05 0.04 0.02 0.01 0.01 0.02 0.02 0.02 0.02 0.01 0.02 0.02 0.01 0.01 0.02 0.02 0.02 0.02 0.01 0.02 0.02 0.03 0.03 0.04 0.04 0.04 0.04
0.01 0.01 0.01 0.02 0.02 0.02 0.02 0.03 0.03 0.03 0.03 0.03 0.02 0.01 0.01 0.01 0.01 0.01 0.02 0.02 0.01 0.01 0.01 0.01 0.01 0.02 0.02 0.01 0.01 0.02 0.02 0.02 0.03 0.03 0.03 0.04 0.04 0.04
0.01 0.02 0.02 0.03 0.04 0.04 0.04 0.03 0.02 0.02 0.02 0.02 0.02 0.01 0.01 0.01 0.01 0.01 0.02 0.02 0.02 0.01 0.01 0.01 0.01 0.01 0.01 0.01 0.02 0.02 0.02 0.03 0.03 0.04 0.05 0.06 0.05 0.04
0.02 0.03 0.02 0.03 0.03 0.04 0.04 0.03 0.02 0.01 0.01 0.02 0.02 0.01 0.01 0.01 0.02 0.02 0.02 0.02 0.02 0.01 0.01 0.01 0.01 0.01 0.01 0.01 0.02 0.02 0.03 0.04 0.04 0.05 0.07 0.07 0.06 0.06
0.02 0.02 0.02 0.02 0.03 0.02 0.02 0.02 0.02 0.02 0.02 0.02 0.02 0.02 0.02 0.02 0.02 0.02 0.02 0.03 0.03 0.02 0.03 0.03 0.03 0.04 0.04 0.03 0.03 0.02 0.04 0.05 0.05 0.06 0.07 0.08 0.09 0.08
0.02 0.02 0.02 0.02 0.02 0.02 0.02 0.01 0.01 0.01 0.01 0.02 0.02 0.02 0.02 0.02 0.02 0.02 0.02 0.03 0.04 0.04 0.04 0.05 0.06 0.08 0.07 0.05 0.06 0.06 0.06 0.05 0.05 0.05 0.06 0.06 0.07 0.08
0.03 0.03 0.03 0.02 0.02 0.02 0.02 0.02 0.01 0.01 0.01 0.01 0.02 0.02 0.03 0.03 0.02 0.02 0.02 0.03 0.04 0.03 0.04 0.05 0.06 0.05 0.06 0.08 0.09 0.08 0.06 0.05 0.04 0.04 0.04 0.04 0.04 0.05
0.02 0.02 0.02 0.02 0.02 0.03 0.02 0.02 0.02 0.01 0.01 0.01 0.01 0.02 0.02 0.02 0.03 0.03 0.03 0.03 0.03 0.03 0.03 0.04 0.04 0.04 0.06 0.09 0.09 0.06 0.05 0.05 0.04 0.04 0.03 0.03 0.03 0.03
0.02 0.02 0.02 0.02 0.02 0.02 0.02 0.02 0.02 0.01 0.01 0.01 0.01 0.01 0.01 0.02 0.03 0.03 0.03 0.03 0.03 0.04 0.04 0.04 0.03 0.04 0.06 0.06 0.06 0.05 0.05 0.04 0.04 0.04 0.04 0.03 0.03 0.03
0.02 0.02 0.01 0.02 0.02 0.02 0.02 0.02 0.02 0.01 0.01 0.01 0.01 0.01 0.02 0.02 0.02 0.02 0.02 0.03 0.04 0.05 0.05 0.03 0.03 0.04 0.04 0.04 0.05 0.04 0.04 0.03 0.03 0.03 0.03 0.02 0.02 0.02
0.02 0.02 0.02 0.02 0.02 0.02 0.02 0.02 0.02 0.01 0.01 0.01 0.01 0.01 0.01 0.02 0.02 0.02 0.03 0.03 0.03 0.04 0.03 0.03 0.03 0.03 0.03 0.03 0.04 0.03 0.04 0.04 0.03 0.02 0.02 0.02 0.02 0.02
0.02 0.02 0.02 0.02 0.02 0.01 0.01 0.01 0.01 0.01 0.01 0.01 0.01 0.01 0.01 0.01 0.02 0.02 0.02 0.02 0.02 0.03 0.02 0.01 0.01 0.02 0.03 0.02 0.02 0.02 0.02 0.03 0.03 0.02 0.02 0.02 0.02 0.02
0.02 0.02 0.02 0.01 0.01 0.01 0.01 0.01 0.01 0.01 0.01 0.01 0.01 0.01 0.02 0.02 0.02 0.02 0.02 0.02 0.02 0.03 0.02 0.02 0.01 0.02 0.02 0.02 0.02 0.02 0.02 0.02 0.02 0.02 0.02 0.02 0.02 0.03
0.02 0.02 0.02 0.01 0.01 0.01 0.01 0.01 0.01 0.01 0.01 0.01 0.01 0.02 0.02 0.02 0.02 0.02 0.02 0.02 0.02 0.02 0.03 0.02 0.02 0.02 0.02 0.02 0.02 0.02 0.02 0.02 0.02 0.02 0.02 0.03 0.03 0.03
0.03 0.03 0.02 0.02 0.01 0.01 0.02 0.02 0.02 0.02 0.01 0.01 0.02 0.02 0.02 0.02 0.02 0.02 0.02 0.02 0.02 0.03 0.03 0.03 0.02 0.02 0.03 0.03 0.03 0.03 0.03 0.03 0.03 0.03 0.03 0.03 0.04 0.04
0.03 0.02 0.02 0.02 0.02 0.02 0.02 0.02 0.02 0.01 0.01 0.02 0.02 0.02 0.02 0.02 0.02 0.02 0.02 0.02 0.03 0.03 0.03 0.03 0.02 0.02 0.03 0.04 0.05 0.04 0.04 0.04 0.04 0.04 0.03 0.03 0.04 0.03
0.03 0.02 0.02 0.02 0.02 0.02 0.02 0.01 0.01 0.01 0.02 0.02 0.02 0.02 0.02 0.02 0.02 0.02 0.02 0.02 0.03 0.03 0.03 0.04 0.03 0.02 0.02 0.03 0.04 0.06 0.06 0.05 0.04 0.03 0.02 0.02 0.03 0.03
0.04 0.04 0.03 0.02 0.02 0.02 0.01 0.01 0.01 0.01 0.01 0.02 0.02 0.02 0.02 0.02 0.02 0.02 0.03 0.03 0.03 0.03 0.03 0.04 0.03 0.03 0.02 0.03 0.05 0.06 0.06 0.05 0.03 0.02 0.01 0.02 0.03 0.04
0.03 0.03 0.03 0.02 0.02 0.02 0.01 0.01 0.01 0.01 0.01 0.02 0.02 0.02 0.02 0.02 0.02 0.03 0.03 0.03 0.03 0.03 0.03 0.04 0.04 0.03 0.03 0.03 0.04 0.05 0.05 0.04 0.03 0.02 0.02 0.01 0.02 0.02
MSLP
1011.32 1011.41 1011.53 1011.65 1011.75 1011.77 1011.70 1011.53 1011.27 1010.92 1010.50 1010.05 1009.58 1009.12 1008.69 1008.31 1007.99 1007.74 1007.59 1007.53 1007.58 1007.76 1008.04 1008.43 1008.90 1009.45 1010.04 1010.67 1011.29 1011.92 1012.53 1013.13 1013.72 1014.29 1014.86 1015.42 1015.96 1016.46
1010.72 1010.79 1010.90 1011.01 1011.10 1011.14 1011.11 1010.98 1010.77 1010.48 1010.13 1009.73 1009.30 1008.86 1008.43 1008.03 1007.67 1007.39 1007.18 1007.08 1007.10 1007.24 1007.50 1007.87 1008.34 1008.88 1009.48 1010.11 1010.75 1011.39 1012.02 1012.65 1013.27 1013.88 1014.49 1015.08 1015.64 1016.16
1010.02 1010.06 1010.15 1010.24 1010.32 1010.36 1010.35 1010.28 1010.13 1009.92 1009.64 1009.31 1008.94 1008.55 1008.15 1007.75 1007.39 1007.08 1006.84 1006.71 1006.69 1006.80 1007.04 1007.39 1007.85 1008.38 1008.98 1009.61 1010.26 1010.92 1011.58 1012.24 1012.89 1013.53 1014.17 1014.78 1015.36 1015.89
1009.21 1009.24 1009.29 1009.36 1009.43 1009.48 1009.49 1009.47 1009.39 1009.25 1009.06 1008.82 1008.53 1008.19 1007.83 1007.47 1007.11 1006.80 1006.55 1006.39 1006.35 1006.43 1006.64 1006.98 1007.42 1007.94 1008.53 1009.16 1009.82 1010.49 1011.17 1011.84 1012.52 1013.19 1013.85 1014.49 1015.08 1015.63
1008.30 1008.30 1008.34 1008.39 1008.46 1008.52 1008.57 1008.59 1008.58 1008.52 1008.41 1008.25 1008.04 1007.77 1007.46 1007.13 1006.80 1006.49 1006.24 1006.08 1006.03 1006.10 1006.30 1006.61 1007.04 1007.55 1008.12 1008.74 1009.40 1010.07 1010.75 1011.44 1012.13 1012.83 1013.51 1014.16 1014.77 1015.32
1007.25 1007.24 1007.27 1007.33 1007.41 1007.50 1007.59 1007.66 1007.72 1007.73 1007.70 1007.61 1007.47 1007.26 1007.00 1006.71 1006.41 1006.13 1005.90 1005.75 1005.71 1005.78 1005.97 1006.28 1006.69 1007.19 1007.74 1008.35 1008.98 1009.64 1010.32 1011.01 1011.71 1012.41 1013.10 1013.77 1014.40 1014.97
1006.02 1006.03 1006.07 1006.15 1006.27 1006.40 1006.54 1006.68 1006.79 1006.87 1006.90 1006.88 1006.79 1006.63 1006.42 1006.17 1005.92 1005.68 1005.48 1005.37 1005.36 1005.45 1005.66 1005.97 1006.38 1006.86 1007.40 1007.98 1008.59 1009.22 1009.88 1010.56 1011.25 1011.95 1012.64 1013.32 1013.96 1014.55
1004.60 1004.62 1004.70 1004.82 1004.99 1005.19 1005.39 1005.60 1005.78 1005.92 1006.00 1006.02 1005.98 1005.86 1005.70 1005.50 1005.29 1005.11 1004.98 1004.92 1004.96 1005.10 1005.35 1005.68 1006.10 1006.58 1007.10 1007.66 1008.24 1008.84 1009.47 1010.12 1010.79 1011.47 1012.16 1012.84 1013.49 1014.09
1002.97 1003.01 1003.13 1003.31 1003.55 1003.83 1004.12 1004.39 1004.64 1004.84 1004.97 1005.04 1005.03 1004.95 1004.83 1004.68 1004.54 1004.43 1004.37 1004.40 1004.51 1004.73 1005.03 1005.41 1005.86 1006.34 1006.86 1007.40 1007.96 1008.52 1009.11 1009.73 1010.36 1011.02 1011.69 1012.36 1013.01 1013.62
1001.16 1001.21 1001.37 1001.63 1001.95 1002.31 1002.68 1003.04 1003.36 1003.62 1003.80 1003.90 1003.93 1003.90 1003.83 1003.74 1003.67 1003.65 1003.69 1003.81 1004.03 1004.33 1004.72 1005.16 1005.64 1006.16 1006.68 1007.22 1007.75 1008.29 1008.84 1009.42 1010.02 1010.65 1011.29 1011.94 1012.57 1013.18
999.26 999.31 999.51 999.82 1000.22 1000.67 1001.13 1001.56 1001.95 1002.27 1002.50 1002.65 1002.72 1002.74 1002.72 1002.71 1002.72 1002.80 1002.95 1003.18 1003.51 1003.91 1004.39 1004.90 1005.45 1006.00 1006.55 1007.08 1007.61 1008.13 1008.66 1009.21 1009.77 1010.36 1010.97 1011.59 1012.20 1012.79
997.39 997.43 997.64 997.99 998.45 998.97 999.50 1000.00 1000.45 1000.82 1001.11 1001.30 1001.42 1001.50 1001.55 1001.62 1001.73 1001.91 1002.17 1002.52 1002.96 1003.47 1004.03 1004.63 1005.23 1005.83 1006.41 1006.97 1007.50 1008.02 1008.53 1009.06 1009.60 1010.16 1010.73 1011.32 1011.90 1012.46
995.70 995.71 995.92 996.28 996.76 997.32 997.89 998.44 998.94 999.35 999.68 999.92 1000.10 1000.24 1000.37 1000.53 1000.74 1001.02 1001.39 1001.85 1002.39 1003.00 1003.64 1004.31 1004.98 1005.62 1006.24 1006.82 1007.37 1007.90 1008.42 1008.94 1009.47 1010.01 1010.56 1011.11 1011.65 1012.18
994.35 994.31 994.48 994.82 995.29 995.84 996.42 996.99 997.50 997.93 998.29 998.58 998.81 999.02 999.23 999.48 999.78 1000.17 1000.64 1001.19 1001.82 1002.50 1003.22 1003.94 1004.66 1005.35 1006.00 1006.61 1007.19 1007.75 1008.28 1008.81 1009.34 1009.87 1010.40 1010.92 1011.43 1011.92
993.46 993.35 993.45 993.73 994.15 994.65 995.19 995.73 996.22 996.65 997.03 997.34 997.62 997.89 998.18 998.51 998.91 999.39 999.94 1000.57 1001.27 1002.01 1002.78 1003.54 1004.29 1005.01 1005.70 1006.34 1006.95 1007.53 1008.09 1008.64 1009.17 1009.70 1010.22 1010.72 1011.20 1011.65
993.08 992.90 992.91 993.10 993.42 993.84 994.29 994.75 995.19 995.59 995.95 996.28 996.59 996.92 997.28 997.68 998.16 998.72 999.34 1000.04 1000.78 1001.56 1002.36 1003.15 1003.91 1004.65 1005.36 1006.02 1006.66 1007.27 1007.85 1008.42 1008.97 1009.50 1010.01 1010.49 1010.94 1011.35
993.22 992.96 992.88 992.95 993.14 993.43 993.76 994.11 994.46 994.80 995.13 995.45 995.78 996.15 996.56 997.03 997.58 998.19 998.88 999.62 1000.40 1001.20 1002.01 1002.80 1003.58 1004.32 1005.03 1005.72 1006.37 1007.00 1007.60 1008.18 1008.74 1009.27 1009.76 1010.22 1010.64 1011.01
993.81 993.48 993.29 993.24 993.29 993.43 993.62 993.84 994.08 994.33 994.60 994.89 995.23 995.61 996.06 996.59 997.18 997.85 998.58 999.35 1000.15 1000.96 1001.77 1002.57 1003.34 1004.08 1004.80 1005.48 1006.14 1006.77 1007.38 1007.96 1008.51 1009.03 1009.50 1009.93 1010.32 1010.65
994.72 994.33 994.05 993.88 993.80 993.79 993.83 993.91 994.03 994.18 994.38 994.63 994.95 995.34 995.81 996.36 996.99 997.69 998.44 999.24 1000.06 1000.88 1001.69 1002.48 1003.24 1003.98 1004.69 1005.37 1006.02 1006.64 1007.24 1007.81 1008.34 1008.83 1009.27 1009.66 1010.00 1010.29
995.80 995.38 995.04 994.77 994.57 994.42 994.33 994.28 994.28 994.34 994.46 994.66 994.94 995.32 995.79 996.35 997.00 997.71 998.48 999.29 1000.11 1000.93 1001.74 1002.53 1003.29 1004.02 1004.72 1005.39 1006.02 1006.63 1007.20 1007.74 1008.24 1008.68 1009.08 1009.42 1009.72 1009.96
996.94 996.51 996.12 995.79 995.50 995.25 995.05 994.90 994.80 994.77 994.82 994.96 995.20 995.54 995.99 996.54 997.18 997.89 998.66 999.46 1000.28 1001.10 1001.91 1002.70 1003.45 1004.18 1004.87 1005.52 1006.14 1006.72 1007.26 1007.76 1008.21 1008.61 1008.95 1009.25 1009.49 1009.69
998.04 997.62 997.22 996.85 996.51 996.20 995.93 995.70 995.53 995.42 995.41 995.49 995.67 995.97 996.38 996.90 997.51 998.19 998.94 999.73 1000.53 1001.35 1002.15 1002.93 1003.68 1004.40 1005.08 1005.72 1006.32 1006.87 1007.38 1007.84 1008.24 1008.60 1008.90 1009.15 1009.35 1009.51
999.06 998.66 998.27 997.89 997.53 997.20 996.88 996.61 996.39 996.24 996.17 996.20 996.33 996.58 996.93 997.40 997.96 998.60 999.30 1000.06 1000.84 1001.63 1002.42 1003.19 1003.93 1004.64 1005.32 1005.94 1006.52 1007.06 1007.53 1007.96 1008.33 1008.65 1008.92 1009.13 1009.31 1009.44
Thickness
5500 5499 5497 5496 5495 5495 5494 5494 5492 5494 5498 5496 5494 5494 5494 5493 5493 5493 5492 5492 5492 5491 5490 5489 5488 5487 5486 5485 5484 5484 5484 5483 5483 5483 5483 5484 5485 5486
5488 5487 5486 5485 5483 5483 5483 5483 5483 5484 5486 5487 5483 5482 5482 5482 5482 5481 5481 5481 5481 5480 5479 5479 5478 5477 5476 5475 5474 5474 5474 5473 5473 5474 5474 5474 5475 5477
5477 5476 5475 5473 5473 5473 5473 5473 5473 5472 5474 5475 5472 5471 5470 5470 5470 5471 5471 5470 5470 5469 5469 5469 5469 5468 5467 5466 5465 5465 5465 5465 5465 5465 5465 5466 5467 5468
5466 5465 5464 5463 5463 5463 5463 5464 5463 5463 5462 5463 5462 5460 5459 5459 5460 5460 5461 5461 5460 5460 5460 5459 5459 5459 5458 5458 5457 5456 5456 5456 5456 5457 5457 5458 5459 5460
5456 5455 5454 5453 5454 5454 5454 5454 5453 5453 5452 5452 5452 5450 5449 5449 5449 5450 5450 5451 5451 5451 5451 5451 5451 5451 5450 5449 5449 5449 5448 5448 5449 5449 5450 5450 5451 5452
5445 5444 5444 5444 5444 5445 5445 5445 5444 5443 5442 5441 5441 5440 5439 5439 5439 5439 5440 5441 5442 5442 5442 5443 5443 5443 5442 5442 5442 5441 5441 5441 5441 5441 5442 5443 5444 5444
5435 5435 5435 5435 5436 5436 5437 5436 5435 5434 5432 5431 5432 5431 5430 5430 5430 5430 5430 5431 5432 5432 5432 5434 5434 5435 5434 5434 5434 5434 5434 5434 5434 5434 5435 5436 5437 5438
5425 5425 5425 5426 5426 5427 5427 5427 5427 5425 5424 5423 5423 5422 5422 5422 5421 5421 5420 5420 5422 5422 5422 5424 5424 5425 5426 5427 5427 5427 5427 5427 5427 5427 5428 5429 5431 5432
5415 5416 5416 5416 5416 5416 5416 5417 5417 5417 5417 5416 5415 5415 5414 5415 5414 5413 5412 5411 5412 5412 5412 5415 5415 5416 5417 5419 5419 5420 5420 5420 5420 5421 5422 5423 5424 5426
5406 5407 5407 5407 5407 5407 5407 5406 5406 5406 5407 5407 5408 5408 5408 5407 5407 5407 5405 5404 5403 5403 5404 5404 5406 5407 5409 5411 5412 5413 5413 5413 5414 5415 5416 5417 5418 5419
5397 5398 5398 5398 5399 5399 5399 5399 5398 5397 5397 5398 5399 5399 5399 5400 5400 5399 5397 5397 5396 5396 5396 5396 5397 5398 5401 5403 5404 5405 5406 5407 5408 5409 5410 5411 5412 5413
5389 5389 5390 5390 5391 5392 5391 5391 5391 5390 5389 5389 5389 5390 5390 5391 5391 5391 5391 5390 5389 5389 5389 5389 5389 5389 5392 5395 5396 5397 5399 5400 5402 5403 5404 5404 5405 5407
5381 5382 5382 5383 5384 5385 5385 5385 5385 5384 5382 5382 5382 5382 5382 5383 5383 5384 5384 5384 5384 5383 5384 5383 5382 5382 5382 5384 5389 5391 5392 5393 5394 5395 5396 5398 5399 5401
5375 5375 5376 5377 5378 5378 5378 5379 5378 5378 5376 5375 5374 5374 5375 5376 5376 5377 5378 5379 5379 5380 5379 5378 5377 5377 5376 5377 5380 5383 5384 5385 5387 5388 5389 5390 5392 5394
5369 5370 5370 5370 5371 5371 5371 5372 5371 5370 5369 5368 5367 5367 5368 5369 5370 5371 5372 5373 5374 5374 5374 5374 5374 5373 5372 5372 5373 5375 5376 5378 5380 5380 5381 5382 5384 5386
5362 5363 5363 5363 5363 5363 5363 5364 5364 5363 5363 5362 5361 5361 5362 5363 5364 5365 5366 5366 5367 5367 5368 5369 5369 5369 5369 5369 5369 5370 5371 5371 5373 5374 5375 5376 5378 5379
5355 5355 5355 5355 5355 5355 5356 5356 5357 5357 5356 5356 5356 5356 5356 5357 5358 5359 5359 5360 5360 5360 5361 5362 5364 5365 5365 5365 5365 5366 5366 5367 5367 5368 5369 5371 5372 5373
5350 5349 5349 5349 5349 5349 5350 5350 5350 5351 5351 5351 5351 5351 5351 5352 5353 5353 5354 5354 5354 5355 5355 5356 5357 5359 5360 5361 5362 5361 5361 5361 5362 5362 5363 5363 5366 5367
5344 5343 5343 5343 5343 5344 5345 5345 5345 5346 5346 5346 5346 5346 5347 5347 5348 5349 5349 5350 5350 5350 5350 5351 5352 5353 5354 5355 5355 5356 5355 5356 5357 5357 5357 5357 5359 5361
5338 5338 5337 5337 5338 5339 5340 5340 5340 5340 5341 5342 5342 5342 5342 5343 5344 5344 5344 5344 5345 5345 5346 5347 5347 5348 5349 5348 5349 5350 5351 5352 5352 5352 5352 5352 5354 5357
5332 5332 5333 5333 5334 5334 5335 5335 5336 5336 5337 5338 5338 5339 5339 5339 5339 5339 5340 5340 5341 5341 5342 5342 5342 5344 5344 5345 5344 5345 5346 5347 5347 5347 5347 5348 5349 5351
5328 5328 5328 5329 5330 5330 5331 5332 5332 5333 5333 5334 5334 5335 5335 5336 5335 5336 5336 5336 5337 5338 5338 5338 5339 5341 5341 5342 5341 5340 5341 5343 5343 5344 5344 5344 5343 5344
5324 5324 5325 5325 5326 5326 5327 5328 5329 5330 5330 5331 5331 5331 5332 5332 5332 5333 5333 5333 5334 5334 5335 5335 5336 5337 5337 5337 5336 5336 5336 5338 5339 5340 5341 5341 5342 5343